• In Belarus
  • List of Countries
  • For 7 days
  • Water Temperature
  • Satellite Maps
  • Weather Map
  • Weather Widgets
  • user-avatar
    Login

    Hourly Weather Blagoevgrad

    Today, 26 March, Tuesday

    Time Temperature Precipitation Wind Pressure Humidity
    00:00 +11°C° 0 mm 1 mps 714 mmHg 76%
    01:00 +11°C° 0 mm 1 mps 714 mmHg 78%
    02:00 +10°C° 0 mm 1 mps 715 mmHg 85%
    03:00 +10°C° 0 mm 1 mps 715 mmHg 84%
    04:00 +10°C° 0 mm 1 mps 715 mmHg 83%
    05:00 +10°C° 0 mm 1 mps 716 mmHg 83%
    06:00 +9°C° 0 mm 2 mps 716 mmHg 79%
    07:00 +10°C° 0 mm 3 mps 717 mmHg 74%
    08:00 +11°C° 0 mm 3 mps 717 mmHg 68%
    09:00 +12°C° 0 mm 3 mps 718 mmHg 64%
    10:00 +13°C° 0 mm 4 mps 718 mmHg 60%
    11:00 +14°C° 0 mm 4 mps 718 mmHg 55%
    12:00 +14°C° 0.1 mm 4 mps 718 mmHg 54%
    13:00 +14°C° 0.1 mm 4 mps 718 mmHg 53%
    14:00 +14°C° 0.1 mm 5 mps 718 mmHg 52%
    15:00 +14°C° 0 mm 5 mps 718 mmHg 53%
    16:00 +13°C° 0 mm 4 mps 718 mmHg 54%
    17:00 +12°C° 0 mm 4 mps 718 mmHg 55%
    18:00 +11°C° 0 mm 4 mps 719 mmHg 58%
    19:00 +10°C° 0 mm 3 mps 719 mmHg 62%
    20:00 +9°C° 0 mm 3 mps 720 mmHg 66%
    21:00 +8°C° 0 mm 2 mps 720 mmHg 68%
    22:00 +7°C° 0 mm 2 mps 720 mmHg 69%
    23:00 +7°C° 0 mm 2 mps 721 mmHg 71%

    Tomorrow, 27 March, Wednesday

    Time Temperature Precipitation Wind Pressure Humidity
    00:00 +6°C° 0 mm 2 mps 721 mmHg 70%
    01:00 +6°C° 0 mm 2 mps 722 mmHg 69%
    02:00 +5°C° 0 mm 2 mps 722 mmHg 69%
    03:00 +5°C° 0 mm 2 mps 722 mmHg 67%
    04:00 +5°C° 0 mm 2 mps 722 mmHg 65%
    05:00 +4°C° 0 mm 2 mps 722 mmHg 64%
    06:00 +5°C° 0 mm 2 mps 723 mmHg 60%
    07:00 +6°C° 0 mm 2 mps 723 mmHg 55%
    08:00 +5°C° 0 mm 3 mps 724 mmHg 51%
    09:00 +8°C° 0 mm 3 mps 724 mmHg 46%
    10:00 +9°C° 0 mm 3 mps 724 mmHg 41%
    11:00 +11°C° 0 mm 3 mps 724 mmHg 36%
    12:00 +11°C° 0 mm 3 mps 724 mmHg 35%
    13:00 +12°C° 0 mm 3 mps 724 mmHg 34%
    14:00 +13°C° 0 mm 3 mps 724 mmHg 33%
    15:00 +13°C° 0 mm 3 mps 723 mmHg 34%
    16:00 +12°C° 0 mm 3 mps 723 mmHg 35%
    17:00 +12°C° 0 mm 3 mps 723 mmHg 36%
    18:00 +10°C° 0 mm 3 mps 723 mmHg 42%
    19:00 +9°C° 0 mm 3 mps 724 mmHg 48%
    20:00 +7°C° 0 mm 3 mps 724 mmHg 54%
    21:00 +6°C° 0 mm 2 mps 725 mmHg 59%
    22:00 +6°C° 0 mm 2 mps 725 mmHg 63%
    23:00 +5°C° 0 mm 2 mps 725 mmHg 68%

    Day after tomorrow, 28 March, Thursday

    Time Temperature Precipitation Wind Pressure Humidity
    00:00 +5°C° 0 mm 2 mps 725 mmHg 70%
    01:00 +4°C° 0 mm 2 mps 726 mmHg 71%
    02:00 +4°C° 0 mm 2 mps 726 mmHg 73%
    03:00 +4°C° 0 mm 2 mps 726 mmHg 73%
    04:00 +3°C° 0 mm 2 mps 726 mmHg 74%
    05:00 +3°C° 0 mm 2 mps 726 mmHg 74%
    06:00 +4°C° 0 mm 2 mps 726 mmHg 69%
    07:00 +5°C° 0 mm 2 mps 727 mmHg 65%
    08:00 +6°C° 0 mm 2 mps 727 mmHg 60%
    09:00 +8°C° 0 mm 2 mps 727 mmHg 54%
    10:00 +9°C° 0 mm 2 mps 728 mmHg 48%
    11:00 +12°C° 0 mm 2 mps 728 mmHg 42%
    12:00 +12°C° 0 mm 2 mps 727 mmHg 40%
    13:00 +13°C° 0 mm 2 mps 727 mmHg 38%
    14:00 +13°C° 0 mm 3 mps 727 mmHg 37%
    15:00 +12°C° 0 mm 3 mps 726 mmHg 39%
    16:00 +12°C° 0 mm 3 mps 726 mmHg 41%
    17:00 +11°C° 0 mm 3 mps 726 mmHg 44%
    18:00 +9°C° 0 mm 3 mps 726 mmHg 49%
    19:00 +8°C° 0 mm 3 mps 726 mmHg 55%
    20:00 +5°C° 0 mm 3 mps 727 mmHg 61%
    21:00 +5°C° 0 mm 2 mps 727 mmHg 63%
    22:00 +5°C° 0 mm 2 mps 727 mmHg 66%
    23:00 +4°C° 0 mm 2 mps 728 mmHg 68%

    29 March, Friday

    Time Temperature Precipitation Wind Pressure Humidity
    00:00 +3°C° 0 mm 2 mps 728 mmHg 68%
    01:00 +3°C° 0 mm 2 mps 728 mmHg 68%
    02:00 +3°C° 0 mm 2 mps 728 mmHg 69%
    03:00 +2°C° 0 mm 2 mps 728 mmHg 68%
    04:00 +2°C° 0 mm 2 mps 728 mmHg 67%
    05:00 +2°C° 0 mm 2 mps 728 mmHg 67%
    06:00 +3°C° 0 mm 2 mps 728 mmHg 62%
    07:00 +3°C° 0 mm 3 mps 728 mmHg 57%
    08:00 +4°C° 0 mm 3 mps 729 mmHg 52%
    09:00 +5°C° 0 mm 4 mps 729 mmHg 48%
    10:00 +7°C° 0 mm 4 mps 729 mmHg 44%
    11:00 +8°C° 0 mm 5 mps 729 mmHg 39%
    12:00 +9°C° 0 mm 5 mps 728 mmHg 37%
    13:00 +9°C° 0 mm 5 mps 728 mmHg 35%
    14:00 +10°C° 0 mm 5 mps 727 mmHg 32%
    15:00 +9°C° 0 mm 5 mps 727 mmHg 33%
    16:00 +9°C° 0 mm 5 mps 727 mmHg 33%
    17:00 +8°C° 0 mm 5 mps 726 mmHg 33%
    18:00 +6°C° 0 mm 4 mps 727 mmHg 39%
    19:00 +4°C° 0 mm 4 mps 727 mmHg 44%
    20:00 +3°C° 0 mm 3 mps 727 mmHg 50%
    21:00 +2°C° 0 mm 3 mps 728 mmHg 52%
    22:00 +2°C° 0 mm 2 mps 728 mmHg 55%
    23:00 +2°C° 0 mm 2 mps 728 mmHg 57%

    30 March, Saturday

    Time Temperature Precipitation Wind Pressure Humidity
    00:00 +2°C° 0 mm 2 mps 728 mmHg 57%
    01:00 +1°C° 0 mm 2 mps 728 mmHg 57%
    02:00 +1°C° 0 mm 2 mps 727 mmHg 56%
    03:00 +1°C° 0 mm 2 mps 727 mmHg 57%
    04:00 +1°C° 0 mm 2 mps 727 mmHg 57%
    05:00 +1°C° 0 mm 2 mps 727 mmHg 57%
    06:00 +1°C° 0 mm 3 mps 727 mmHg 54%
    07:00 +2°C° 0 mm 3 mps 727 mmHg 50%
    08:00 +3°C° 0 mm 3 mps 727 mmHg 47%
    09:00 +5°C° 0 mm 3 mps 727 mmHg 43%
    10:00 +7°C° 0 mm 4 mps 727 mmHg 40%
    11:00 +10°C° 0 mm 4 mps 726 mmHg 36%
    12:00 +11°C° 0 mm 4 mps 726 mmHg 35%
    13:00 +12°C° 0 mm 4 mps 725 mmHg 35%
    14:00 +13°C° 0 mm 5 mps 724 mmHg 34%
    15:00 +12°C° 0 mm 5 mps 724 mmHg 37%
    16:00 +12°C° 0 mm 5 mps 723 mmHg 40%
    17:00 +10°C° 0 mm 5 mps 723 mmHg 42%
    18:00 +8°C° 0 mm 4 mps 723 mmHg 50%
    19:00 +7°C° 0 mm 3 mps 723 mmHg 58%
    20:00 +5°C° 0 mm 3 mps 723 mmHg 66%
    21:00 +5°C° 0 mm 2 mps 723 mmHg 69%
    22:00 +5°C° 0 mm 2 mps 723 mmHg 72%
    23:00 +4°C° 0 mm 2 mps 724 mmHg 74%

    31 March, Sunday

    Time Temperature Precipitation Wind Pressure Humidity
    00:00 +4°C° 0 mm 2 mps 723 mmHg 76%
    01:00 +4°C° 0 mm 2 mps 723 mmHg 77%
    02:00 +4°C° 0 mm 2 mps 723 mmHg 78%
    03:00 +4°C° 0 mm 2 mps 722 mmHg 79%
    04:00 +3°C° 0 mm 2 mps 722 mmHg 80%
    05:00 +3°C° 0 mm 2 mps 722 mmHg 81%
    06:00 +5°C° 0 mm 2 mps 722 mmHg 75%
    07:00 +6°C° 0 mm 2 mps 722 mmHg 70%
    08:00 +7°C° 0 mm 2 mps 721 mmHg 65%
    09:00 +9°C° 0 mm 3 mps 721 mmHg 59%
    10:00 +11°C° 0 mm 3 mps 721 mmHg 53%
    11:00 +12°C° 0 mm 4 mps 721 mmHg 47%
    12:00 +13°C° 0 mm 4 mps 720 mmHg 46%
    13:00 +14°C° 0 mm 4 mps 720 mmHg 44%
    14:00 +14°C° 0 mm 4 mps 719 mmHg 42%
    15:00 +14°C° 0 mm 4 mps 719 mmHg 43%
    16:00 +14°C° 0 mm 4 mps 718 mmHg 45%
    17:00 +13°C° 0 mm 4 mps 718 mmHg 46%
    18:00 +12°C° 0 mm 3 mps 718 mmHg 53%
    19:00 +10°C° 0 mm 2 mps 718 mmHg 61%
    20:00 +8°C° 0 mm 2 mps 719 mmHg 68%
    21:00 +7°C° 0 mm 2 mps 719 mmHg 71%
    22:00 +8°C° 0 mm 1 mps 719 mmHg 75%
    23:00 +7°C° 0 mm 1 mps 718 mmHg 78%
    Show more